Preview of NWS' New Version of Forecast
This preview is not operational and should not be used for support decisions.
Latest weather observations around

Pottstown, Pottstown Limerick Airport (KPTW)

Using English Units (Switch to International System of Units)
Date/ Time (EDT) Wind (mph) Vis. (mi) Weather Sky Cond. Temp (°F) Rel. Humidity Wind Chill (°F) Heat Index (°F) Pressure Precip. (in)
Air Dwpt 6 hour Altimeter (inHg) Sea level (inHg) 1 hr 3 hr 6 hr
Max Min
Aug 25 11:54 NNE 9 10 Partly Cloudy SCT041 69 56     63%     30.28 30.27      
Aug 25 10:54 NE 10 10 Mostly Clear FEW030 67 56     68%     30.29 30.27      
Aug 25 10:02 7 10 Mostly Cloudy SCT026 BKN032 67 60     79%     30.29        
Aug 25 09:54 NNE 11 10 Mostly Cloudy FEW021 BKN028 BKN035 65 58     78%     30.29 30.28      
Aug 25 08:54 NE 10 10 Cloudy OVC080 64 59     84%     30.29 30.28      
Aug 25 07:54 NNE 5 10 Clear CLR 61 58     90%     30.28 30.27      
Aug 25 06:54 Calm 9 Clear CLR 56 55     97%     30.26 30.25      
Aug 25 05:54 Calm 9 Clear CLR 53 53     100%     30.25 30.24      
Aug 25 04:54 Calm 10 Clear CLR 54 54     100%     30.24 30.23      
Aug 25 03:54 Calm 10 Mostly Cloudy BKN070 56 56     100%     30.25 30.23      
Aug 25 02:54 Calm 10 Cloudy OVC075 56 56     100%     30.24 30.23      
Aug 25 01:54 Calm 10 Partly Cloudy SCT075 56 55     97%     30.25 30.24      
Aug 25 00:54 Calm 10 Cloudy OVC075 59 55     87%     30.26 30.25      
Aug 24 23:54 Calm 10 Partly Cloudy SCT070 57 55     93%     30.26 30.25      
Aug 24 22:54 Calm 10 Mostly Clear FEW075 59 54     83%     30.25 30.24      
Aug 24 21:54 NE 5 10 Clear CLR 61 53     75%     30.24 30.23      
Aug 24 20:54 Calm 10 Clear CLR 62 54     75%     30.23 30.22      
Aug 24 19:54 Calm 10 Mostly Clear FEW080 65 52     63%     30.21 30.2      
Aug 24 18:54 N 3 10 Partly Cloudy SCT080 72 52     49%   71 30.19 30.18      
Aug 24 17:54 NNE 3 10 Partly Cloudy SCT080 70 50     49%     30.2 30.18      
Aug 24 16:54 N 3 10 Clear CLR 75 49     40%   74 30.19 30.17      
Aug 24 15:54 NW 10 10 Clear CLR 74 51     45%   73 30.18 30.17      
Aug 24 14:54 N 6 10 Cloudy BKN060 OVC075 72 51     48%   71 30.2 30.19      
Aug 24 13:54 N 7 10 Mostly Cloudy BKN070 72 51     48%   71 30.2 30.19      
Aug 24 12:54 ENE 5 10 Mostly Clear FEW055 73 51     46%   72 30.2 30.19      
Aug 24 11:54 3 10 Clear CLR 72 54     53%   71 30.21 30.2      
Aug 24 10:54 NE 8 10 Cloudy OVC075 70 52     53%     30.22 30.21      
Aug 24 09:54 NE 7 10 Mostly Cloudy BKN075 67 54     63%     30.22 30.2      
Aug 24 08:54 7 10 Mostly Clear FEW075 65 54     68%     30.22 30.21      
Aug 24 07:54 WNW 3 10 Mostly Clear FEW075 60 55     83%     30.21 30.19      
Aug 24 06:54 Calm 9 Mostly Cloudy BKN075 55 54     96%     30.19 30.18      
Aug 24 05:54 WNW 3 10 Clear CLR 56 53     90%     30.16 30.15      
Aug 24 04:54 Calm 10 Clear CLR 57 53     87%     30.14 30.13      
Aug 24 03:54 N 7 10 Clear CLR 59 52     78%     30.12 30.11      
Aug 24 02:54 N 8 10 Clear CLR 60 53     78%     30.12 30.11      
Aug 24 01:54 N 6 10 Clear CLR 60 54     80%     30.11 30.1      
Aug 24 00:54 Calm 10 Clear CLR 58 56     93%     30.13 30.11      
Aug 23 23:54 N 3 10 Clear CLR 61 56     83%     30.11 30.1      
Aug 23 22:54 Calm 10 Clear CLR 59 58     96%     30.11 30.1      
Aug 23 21:54 Calm 10 Clear CLR 62 58     86%     30.09 30.07      
Aug 23 20:54 Calm 10 Clear CLR 63 59     87%     30.06 30.05      
Aug 23 19:54 N 3 10 Clear CLR 67 58     73%     30.05 30.04      
Aug 23 18:54 N 7 10 Mostly Clear FEW044 72 60     66%   72 30.04 30.03      
Aug 23 17:54 3 10 Partly Cloudy SCT037 71 62     73%   71 30.04 30.02      
Aug 23 16:54 Calm 10 Mostly Clear FEW031 70 62     76%     30.02 30.01      
Aug 23 15:54 Calm 10 Clear CLR 69 63     81%     30.03 30.01      
Aug 23 14:54 W 5 10 Partly Cloudy FEW038 SCT100 66 63     90%     30.05 30.04      
Aug 23 13:54 W 5 9 Mostly Cloudy SCT047 SCT060 BKN080 65 63     93%     30.07 30.05 0   0
Aug 23 12:54 Calm 6 Light Rain and Fog/Mist BKN060 OVC100 64 63     96%     30.06 30.05 0    
Aug 23 11:54 N 3 10 Light Rain BKN055 OVC070 64 58     81%     30.07 30.06 0    
Aug 23 10:54 NNW 3 4 Light Rain and Fog/Mist BKN075 OVC090 63 61     93%     30.08 30.07 0 0  
Aug 23 09:54 NNE 5 8 Light Rain FEW049 BKN060 OVC085 64 62     93%     30.07 30.06 0    
Aug 23 08:54 N 3 9 Light Rain BKN041 BKN049 OVC110 64 62     93%     30.05 30.04 0    
Aug 23 07:54 Calm 8 Light Rain SCT048 SCT055 OVC100 64 62     93%     30.05 30.03 0   0
Aug 23 06:54 NNE 6 10 Light Rain OVC033 66 62     87%     30.03 30.02 0    
Aug 23 06:30 Calm 9 Cloudy OVC031 67 65     93%     30.02        
Aug 23 05:54 NNW 5 10 Cloudy SCT020 OVC025 67 66     97%     30.01 29.99      
Aug 23 05:45 NNE 3 10 Cloudy SCT016 OVC023 67 66     97%     30        
Aug 23 05:16 N 7 10 Cloudy OVC014 68 66     93%     29.98        
Aug 23 04:54 N 10 10 Cloudy OVC016 69 67     93%     29.97 29.96   0  
Aug 23 04:36 Calm 9 Cloudy BKN018 OVC055 70 69     97%     29.97        
Aug 23 03:54 Calm 9 Cloudy BKN065 BKN090 OVC120 70 70     100%     29.96 29.94 0    
Aug 23 02:54 N 6 6 Rain and Fog/Mist FEW050 OVC110 70 70     100%     29.94 29.93 0    
Aug 23 01:54 NNW 5 8 Light Rain FEW042 BKN049 OVC095 71 71     100%   73 29.96 29.94 0   0
Aug 23 00:54 NNW 3 7 Mostly Cloudy BKN038 72 72     100%   74 29.96 29.94      
Aug 22 23:54 Calm 8 Mostly Cloudy BKN040 72 72     100%   74 29.97 29.95      
Aug 22 23:27 Calm 7 Cloudy FEW003 BKN042 OVC050 73 73     100%   75 29.96        
Aug 22 22:54 Calm 7 Cloudy BKN042 OVC050 73        %     29.96 29.94   0  
Aug 22 21:54 NNW 3 9 Clear CLR 72        %     29.95 29.93      
Aug 22 20:54 NW 5 8 Mostly Clear FEW025 72        %     29.94 29.93 0    
Aug 22 20:36 NW 5 6 Light Rain and Fog/Mist FEW007 SCT024 BKN036 72        %     29.94   0    
Aug 22 20:32 NW 6 2 Light Rain and Fog/Mist FEW007 BKN026 OVC055 72        %     29.94   0    
Aug 22 20:28 NNW 7 1 Thunderstorms and Heavy Rain and Fog/Mist FEW009 BKN028 OVC055 72        %     29.93   0    
Aug 22 20:20 6 1.75 Thunderstorms and Heavy Rain and Fog/Mist FEW010 BKN034 OVC080 74        %         0    
Aug 22 20:14 W 8 5 Thunderstorms and Rain SCT033 BKN055 OVC090 76        %         0    
Aug 22 19:54 S 3 10 Mostly Cloudy BKN080 83        %     29.89 29.88      
Aug 22 18:54 S 5 10 Partly Cloudy SCT060 85        %     29.88 29.86      
Aug 22 17:54 SSW 6 10 Mostly Cloudy BKN050 85        %     29.89 29.87      
Aug 22 16:54 WSW 7 10 Mostly Clear FEW048 86        %     29.88 29.86      
Aug 22 15:54 5 10 Partly Cloudy SCT055 86        %     29.9 29.88      
Aug 22 14:54 W 8 9 Mostly Clear FEW045 87        %     29.92 29.91      
Aug 22 13:54 5 9 Mostly Clear FEW043 85        %     29.93 29.91      
Aug 22 12:54 NW 6 9 Mostly Cloudy BKN033 BKN046 83        %     29.94 29.92      
May 15 04:45 Calm 2 Fog/Mist CLR 60 60     100%     29.92        
May 15 02:16 Calm 3 Fog/Mist CLR 63 63     100%     29.92        
May 14 16:12 3 7 Mostly Cloudy SCT028 BKN038 74 63     69%   74 29.96        
May 13 21:54 E 3 6 Fog/Mist OVC004 52 52     100%     30.08 30.08 0    
May 12 23:45 NE 7 4 Fog/Mist OVC004 55 55     100%     30.09        
Notice The following observation data may not be complete
May 12 20:09   2 Light Rain and Fog/Mist BKN006 BKN039 OVC090          %         0    
May 12 08:54 3 6 Fog/Mist OVC010 54 53     97%     30.13 30.12      
May 12 06:06 5 9 Cloudy BKN020 BKN025 OVC035 50 49     96% 48   30.14        
May 12 05:54 NNE 6 10 Cloudy SCT024 BKN035 OVC043 50 50     100% 48   30.14 30.13 0    
Notice The following observation data may not be complete
May 12 02:54 NNE 9 6 Light Rain OVC060   46      %     30.15 30.14 0    
Jun 12 05:54 Calm 6 Fog/Mist CLR 65 64     97%     30.1 30.09      
Jun 11 21:54 Calm 10 Clear   75 62     64%   75 30.06 30.05      
Jun 10 13:54 SSW 10 10 Mostly Clear FEW065 83 55     38%   82 30.02 30.01      
Jun 10 01:54 Calm 10 Mostly Cloudy BKN090 BKN120 65 54     68%     29.95 29.94      
Jun 09 16:54 7 10 Mostly Clear FEW075 79 51     38%   78 29.81 29.8      
Jun 09 14:54 NW 8 10 Partly Cloudy FEW070 SCT090 78 51     39%   77 29.81 29.8      
Jun 08 08:54 Calm 10 Clear CLR 61 54     78%     30.03 30.02      
Notice The following observation data may not be complete
Jun 06 08:04   10 Cloudy OVC008          %              
Jun 05 23:32 5 4 Fog/Mist FEW043 FEW075 64 64     100%     29.7